Location: Ferchesar
(52.6477°N, 12.4298°E)
Time: 08:55:36
(UTC+01:00)

Tiros 1 despin weight - Pass Details

Date: 12 December 2021
Orbit: 592 x 641 km, 48.2° (Epoch: 19 January)

Event Time Altitude Azimuth Distance (km) Brightness Sun altitude
Rises 13:27:51 0° 266° (W) 2,847 ? 12.1°
Reaches altitude 10° 13:30:13 10° 260° (W) 1,937 ? 11.9°
Maximum altitude 13:34:27 45° 188° (S) 814 ? 11.7°
Drops below altitude 10° 13:38:39 10° 116° (ESE) 1,921 ? 11.5°
Sets 13:40:59 0° 110° (ESE) 2,821 ? 11.4°
